Location: Albany
(35.0000°S, 118.0000°E)
Time: 09:24:12
(UTC-04:00)

Amateur Radio Satellites - All Passes

Search period start: 23 May 2015 08:54
Search period end: 24 May 2015 08:54
Location: Albany, 35.0000°S, 118.0000°E

Satellite Date Start Highest point End Downlink Frequencies (MHz)
Time Altitude Azimuth
Cosmos 2491 23 May 08:55:22 08:59:14 13° 260° (W) 09:02:20 435.465 / 435.565
AIST 1 23 May 08:55:56 08:58:54 18° 268° (W) 09:01:41
FUNcube-1 23 May 09:08:11 09:10:56 17° 88° (E) 09:13:54 145.935
DELFI C3 23 May 09:08:18 09:11:24 21° 86° (E) 09:14:34 145.870
SEEDS 23 May 09:10:20 09:14:41 70° 257° (WSW) 09:18:57 437.485
ANTELSAT 23 May 09:16:12 09:19:40 25° 109° (ESE) 09:23:17 437.575/2403.000
CUBEBUG 2 23 May 09:24:59 09:29:16 43° 81° (E) 09:33:40 437.445
BRITE-PL 23 May 09:25:17 09:27:56 16° 250° (WSW) 09:30:27 437.365/2234.400
POLYITAN 1 23 May 09:28:24 09:30:48 15° 111° (ESE) 09:33:23 437.675
QB50P1 23 May 09:28:51 09:31:16 15° 112° (ESE) 09:33:51 145.935-145.965
COMPASS 1 23 May 09:30:43 09:34:54 50° 255° (WSW) 09:39:01 437.405
DOVE 4 23 May 09:32:04 09:36:03 34° 254° (WSW) 09:40:07 437.250
BUGSAT 1 23 May 09:34:08 09:35:10 11° 113° (ESE) 09:36:26 437.445
PHONESAT 2.4 23 May 09:36:18 09:39:50 54° 332° (NNW) 09:43:20 2401.200-2431.200
CINEMA 3 23 May 09:41:10 09:45:35 58° 256° (WSW) 09:50:08 145.822/145.860
ZACube-1 23 May 09:45:37 09:49:55 46° 81° (E) 09:54:16 437.345
YUBILEINY 23 May 09:45:39 09:50:10 14° 241° (WSW) 09:54:01 435.215
Cosmos 2504 23 May 09:45:42 09:53:01 64° 87° (E) 10:00:59 435.465 / 435.565
AAUSAT CUBESAT 2 23 May 09:46:45 09:50:44 37° 253° (WSW) 09:54:39 437.432
RS-15 23 May 09:49:16 10:01:33 67° 236° (SW) 10:13:37 29.354- 29.394
GOMX 1 23 May 09:49:49 09:52:15 14° 249° (WSW) 09:54:32 467.674
TIGRISAT 23 May 09:50:16 09:54:28 61° 105° (ESE) 09:58:47 435.000
UKube-1 23 May 09:57:18 10:00:54 25° 85° (E) 10:04:34 .
VELOX 1 23 May 09:58:24 10:00:22 13° 89° (E) 10:02:35 145.980
DX 1 23 May 09:59:30 10:03:19 29° 83° (E) 10:07:09 434.975-435.025
NANOSAT C BR1 23 May 10:00:15 10:04:05 34° 107° (ESE) 10:08:00 145.865
QB50P2 23 May 10:04:52 10:08:51 41° 106° (ESE) 10:12:54 145.880/145.840
Oscar 11 23 May 10:08:22 10:12:41 50° 255° (WSW) 10:16:55 145.826/435.025
UNISAT 6 23 May 10:08:42 10:13:00 76° 282° (WNW) 10:17:22 437.425
HUMSAT D 23 May 10:15:01 10:19:09 44° 82° (E) 10:23:18 437.325/437.525
CANX-2 23 May 10:15:34 10:16:23 10° 247° (WSW) 10:16:54 2200.000
POPSAT HIP 1 23 May 10:18:03 10:22:13 58° 104° (ESE) 10:26:26 437.405
PCSat 23 May 10:18:04 10:23:16 45° 121° (ESE) 10:28:28 145.827
CUTE 1.7 + AOD 2 23 May 10:19:54 10:20:36 10° 247° (WSW) 10:21:02 437.475
UWE-3 23 May 10:21:27 10:25:48 51° 255° (WSW) 10:30:14 435.000/436.395/437.385
DUCHIFAT 1 23 May 10:23:31 10:27:43 66° 104° (ESE) 10:31:58 145.980
AISAT 23 May 10:26:52 10:30:46 30° 84° (E) 10:34:41 437.250
HO-68 23 May 10:31:01 10:36:27 22° 242° (WSW) 10:41:36 435.675
50 SAT 23 May 10:35:42 10:39:33 41° 82° (E) 10:43:24 437.505
DELFI C3 23 May 10:43:02 10:46:29 25° 252° (WSW) 10:49:50 145.870
FUNcube-1 23 May 10:43:17 10:47:25 38° 253° (WSW) 10:51:34 145.935
ANTELSAT 23 May 10:52:58 10:56:26 23° 274° (W) 10:59:50 437.575/2403.000
POLYITAN 1 23 May 11:02:26 11:06:25 38° 278° (W) 11:10:25 437.675
QB50P1 23 May 11:02:50 11:06:50 38° 278° (W) 11:10:50 145.935-145.965
CUBEBUG 2 23 May 11:02:56 11:05:40 16° 249° (WSW) 11:08:16 437.445
BUGSAT 1 23 May 11:06:06 11:10:14 54° 280° (W) 11:14:21 437.445
ESTCUBE 1 23 May 11:18:54 11:23:29 68° 79° (E) 11:27:58 437.505/2401.250
ZACube-1 23 May 11:23:26 11:25:56 14° 249° (WSW) 11:28:15 437.345
VELOX 1 23 May 11:32:57 11:37:15 46° 253° (WSW) 11:41:28 145.980
UKube-1 23 May 11:33:25 11:36:58 23° 250° (WSW) 11:40:22 .
DX 1 23 May 11:36:04 11:39:25 21° 250° (WSW) 11:42:36 434.975-435.025
NANOSAT C BR1 23 May 11:37:20 11:40:04 16° 272° (W) 11:42:39 145.865
Cosmos 2504 23 May 11:41:33 11:47:15 21° 247° (WSW) 11:52:55 435.465 / 435.565
QB50P2 23 May 11:42:43 11:44:59 14° 271° (W) 11:47:03 145.880/145.840
CUBEBUG 1 23 May 11:43:19 11:47:43 71° 256° (WSW) 11:52:01 437.445
TISAT 1 23 May 11:43:22 11:46:22 19° 86° (E) 11:49:28 437.305
Oscar 19 23 May 11:51:52 11:55:36 21° 112° (ESE) 11:59:31 437.125/150
HUMSAT D 23 May 11:52:13 11:54:34 14° 248° (WSW) 11:56:43 437.325/437.525
JUGNU 23 May 11:59:01 12:02:31 16° 8° (N) 12:06:04 437.505
PCSat 23 May 12:02:21 12:06:24 21° 287° (WNW) 12:10:15 145.827
AISAT 23 May 12:03:48 12:07:12 21° 250° (WSW) 12:10:27 437.250
RS-15 23 May 12:08:12 12:17:06 21° 209° (SSW) 12:25:24 29.354- 29.394
50 SAT 23 May 12:11:59 12:13:56 13° 248° (WSW) 12:15:41 437.505
GONETS M04 23 May 12:12:16 12:19:44 35° 93° (E) 12:27:26
SO-50 23 May 12:21:06 12:25:11 37° 125° (SE) 12:29:18 436.795
SWISSCUBE 23 May 12:31:26 12:32:33 11° 91° (E) 12:34:01 437.505
CUSAT 1 23 May 12:36:35 12:40:06 32° 82° (E) 12:43:02 437.405
SPROUT 23 May 12:38:21 12:42:40 62° 256° (WSW) 12:46:55 437.525
ESTCUBE 1 23 May 12:59:01 12:59:49 10° 245° (WSW) 13:00:20 437.505/2401.250
SRMSAT 23 May 13:08:41 13:11:45 14° 11° (N) 13:14:54 437.500
TISAT 1 23 May 13:18:28 13:22:11 29° 252° (WSW) 13:25:48 437.305
DANDE 23 May 13:19:24 13:23:56 89° 271° (W) 13:27:24 436.750
Oscar 19 23 May 13:29:54 13:34:43 40° 278° (W) 13:39:33 437.125/150
ITAMSAT 1 23 May 13:34:21 13:39:31 63° 105° (ESE) 13:44:47 435.822/435.867
JUGNU 23 May 13:46:53 13:50:51 18° 358° (N) 13:54:49 437.505
ITUPSAT 1 23 May 13:47:51 13:52:44 73° 77° (ENE) 13:57:31 437.325
Gurwin Techsat 1B 23 May 13:47:56 13:53:16 79° 104° (ESE) 13:58:41 435.225
BEESAT 23 May 13:58:14 14:03:07 85° 258° (WSW) 14:07:54 436.000
SO-50 23 May 14:02:26 14:05:27 18° 291° (WNW) 14:08:19 436.795
SWISSCUBE 23 May 14:06:07 14:10:57 64° 255° (WSW) 14:15:41 437.505
GONETS M04 23 May 14:08:08 14:16:24 45° 256° (WSW) 14:24:38
Cosmos 2499 23 May 14:26:39 14:33:41 46° 91° (E) 14:41:26 435.465 / 435.565
AO-7 23 May 14:27:46 14:35:23 42° 115° (ESE) 14:43:10 29.400- 29.500
RS-15 23 May 14:31:18 14:36:16 13° 174° (S) 14:41:19 29.354- 29.394
JAS-2 23 May 14:38:22 14:43:58 44° 110° (ESE) 14:50:23 435.910
STARS 23 May 14:46:06 14:50:03 31° 83° (E) 14:54:01 437.465
HORYU 2 23 May 14:54:29 14:58:52 62° 105° (ESE) 15:03:20 437.375
SRMSAT 23 May 14:56:13 15:00:15 19° 1° (N) 15:04:17 437.500
KKS-1 23 May 15:07:51 15:12:24 84° 260° (W) 15:16:52 437.445
ITAMSAT 1 23 May 15:16:59 15:19:33 13° 270° (W) 15:21:47 435.822/435.867
ITUPSAT 1 23 May 15:28:44 15:30:03 11° 245° (WSW) 15:31:05 437.325
O/OREOS (USA 219) 23 May 15:30:26 15:34:52 56° 73° (ENE) 15:39:24 437.305
Gurwin Techsat 1B 23 May 15:33:07 15:33:58 10° 268° (W) 15:34:24 435.225
JUGNU 23 May 15:36:22 15:39:11 13° 348° (NNW) 15:41:55 437.505
MOZHAYETS 4 23 May 16:08:08 16:12:18 31° 84° (E) 16:16:29
AO-7 23 May 16:20:25 16:28:11 40° 279° (W) 16:35:54 29.400- 29.500
Cosmos 2499 23 May 16:20:33 16:27:10 30° 250° (WSW) 16:34:04 435.465 / 435.565
STARS 23 May 16:23:00 16:26:19 20° 249° (WSW) 16:29:29 437.465
JAS-2 23 May 16:24:28 16:29:23 25° 270° (W) 16:34:39 435.910
RS-15 23 May 16:44:25 16:54:19 32° 140° (SE) 17:04:03 29.354- 29.394
SRMSAT 23 May 16:45:18 16:48:45 15° 351° (N) 16:52:07 437.500
CUTE-I 23 May 16:57:32 17:02:13 32° 110° (ESE) 17:07:02 437.470
O/OREOS (USA 219) 23 May 17:12:31 17:14:45 13° 236° (SW) 17:16:48 437.305
Cubesat XI-IV 23 May 17:16:21 17:21:31 49° 107° (ESE) 17:26:46 437.490
CUBESAT XI-V 23 May 17:36:23 17:39:50 21° 87° (E) 17:43:24 437.345
MOZHAYETS 4 23 May 17:45:42 17:49:21 22° 250° (WSW) 17:52:52
BEESAT 3 23 May 17:55:39 17:59:26 49° 64° (ENE) 18:03:14 437.485
YUBILEINY 23 May 17:57:32 18:05:51 43° 105° (ESE) 18:14:12 435.215
Cosmos 2491 23 May 17:57:38 18:03:45 23° 96° (E) 18:10:17 435.465 / 435.565
AIST 2 23 May 18:06:16 18:07:55 12° 70° (ENE) 18:09:46 435.215
CUTE-I 23 May 18:37:39 18:42:18 28° 275° (W) 18:46:52 437.470
BEESAT 2 23 May 18:38:59 18:42:53 60° 239° (WSW) 18:46:48 435.950
BRITE-PL 23 May 18:53:20 18:57:39 32° 107° (ESE) 19:01:48 437.365/2234.400
RS-15 23 May 18:56:32 19:08:03 76° 296° (WNW) 19:18:57 29.354- 29.394
STRAND 1 23 May 18:57:35 19:02:44 62° 79° (E) 19:07:48 437.568
Cubesat XI-IV 23 May 18:58:12 19:01:56 18° 272° (W) 19:05:28 437.490
DOVE 4 23 May 18:59:25 19:01:12 13° 111° (ESE) 19:03:12 437.250
PRISM 23 May 19:03:07 19:07:23 89° 271° (W) 19:11:32 437.425
HO-68 23 May 19:07:25 19:13:39 35° 114° (ESE) 19:20:04 435.675
CUBESAT XI-V 23 May 19:13:10 19:17:22 32° 252° (WSW) 19:21:26 437.345
GOMX 1 23 May 19:15:32 19:19:39 32° 107° (ESE) 19:23:39 467.674
CANX-2 23 May 19:26:35 19:30:14 29° 108° (ESE) 19:34:00 2200.000
CUTE 1.7 + AOD 2 23 May 19:30:44 19:34:24 29° 108° (ESE) 19:38:09 437.475
M-CUBED/EXP-1 PRIME 23 May 19:33:02 19:37:56 88° 258° (WSW) 19:42:45 437.505
BEESAT 3 23 May 19:35:47 19:37:44 13° 227° (SW) 19:39:32 437.485
AIST 2 23 May 19:42:14 19:46:07 44° 237° (WSW) 19:50:02 435.215
Cosmos 2504 23 May 19:42:43 19:48:48 21° 113° (ESE) 19:55:21 435.465 / 435.565
AIST 1 23 May 19:43:58 19:47:18 22° 90° (E) 19:50:48
AUBIESAT-1 23 May 19:44:58 19:49:49 75° 252° (WSW) 19:54:35 437.475
Cosmos 2491 23 May 19:51:15 19:59:58 66° 260° (W) 20:08:42 435.465 / 435.565
YUBILEINY 23 May 19:54:36 20:02:33 37° 267° (W) 20:10:16 435.215
SEEDS 23 May 19:58:54 20:02:59 51° 105° (ESE) 20:07:11 437.485
COMPASS 1 23 May 20:18:12 20:22:23 71° 104° (ESE) 20:26:39 437.405
CUBEBUG 2 23 May 20:20:58 20:24:15 23° 109° (ESE) 20:27:37 437.445
BRITE-PL 23 May 20:32:18 20:36:13 22° 275° (W) 20:39:48 437.365/2234.400
AAUSAT CUBESAT 2 23 May 20:33:38 20:37:49 88° 282° (WNW) 20:42:06 437.432
DOVE 4 23 May 20:34:18 20:38:41 49° 279° (W) 20:42:53 437.250
STRAND 1 23 May 20:38:40 20:41:26 14° 245° (WSW) 20:43:57 437.568
ZACube-1 23 May 20:39:13 20:42:29 23° 109° (ESE) 20:45:53 437.345
CINEMA 3 23 May 20:39:48 20:44:05 86° 102° (ESE) 20:48:20 145.822/145.860
UKube-1 23 May 20:50:02 20:52:31 16° 112° (ESE) 20:55:13 .
DX 1 23 May 20:52:42 20:55:38 18° 111° (ESE) 20:58:43 434.975-435.025
GOMX 1 23 May 20:54:24 20:57:51 19° 274° (W) 21:01:03 467.674
HO-68 23 May 20:54:36 21:01:16 40° 278° (W) 21:07:56 435.675
Oscar 11 23 May 20:59:24 21:03:44 81° 103° (ESE) 21:08:09 145.826/435.025
CANX-2 23 May 21:03:02 21:06:13 20° 273° (W) 21:09:18 2200.000
HUMSAT D 23 May 21:04:29 21:07:28 20° 109° (ESE) 21:10:36 437.325/437.525
CUTE 1.7 + AOD 2 23 May 21:07:11 21:10:21 20° 273° (W) 21:13:26 437.475
RS-15 23 May 21:13:48 21:18:48 13° 280° (W) 21:22:35 29.354- 29.394
UWE-3 23 May 21:15:18 21:19:29 85° 102° (ESE) 21:23:43 435.000/436.395/437.385
50 SAT 23 May 21:18:35 21:20:50 15° 110° (ESE) 21:23:16 437.505
AIST 1 23 May 21:21:05 21:24:51 26° 256° (WSW) 21:28:34
AISAT 23 May 21:22:10 21:25:17 19° 111° (ESE) 21:28:33 437.250
DELFI C3 23 May 21:26:11 21:30:14 65° 280° (W) 21:34:20 145.870
Cosmos 2504 23 May 21:34:20 21:43:14 77° 274° (W) 21:52:02 435.465 / 435.565
FUNcube-1 23 May 21:35:31 21:39:40 72° 281° (W) 21:43:53 145.935
SEEDS 23 May 21:38:01 21:39:11 11° 269° (W) 21:40:03 437.485
TIGRISAT 23 May 21:46:02 21:49:04 18° 87° (E) 21:52:18 435.000
CUBEBUG 2 23 May 21:57:29 22:00:53 23° 275° (W) 22:04:13 437.445
UNISAT 6 23 May 22:04:02 22:08:03 29° 84° (E) 22:12:10 437.425
POPSAT HIP 1 23 May 22:08:34 22:10:12 12° 89° (E) 22:12:06 437.405
DUCHIFAT 1 23 May 22:13:13 22:15:18 14° 89° (E) 22:17:36 145.980
ESTCUBE 1 23 May 22:15:12 22:19:29 42° 107° (ESE) 22:23:51 437.505/2401.250
ZACube-1 23 May 22:15:26 22:18:49 23° 274° (W) 22:22:08 437.345
UKube-1 23 May 22:24:13 22:28:21 40° 279° (W) 22:32:30 .
VELOX 1 23 May 22:26:46 22:31:16 80° 282° (WNW) 22:35:48 145.980
DX 1 23 May 22:27:36 22:31:38 35° 278° (W) 22:35:41 434.975-435.025
GONETS M04 23 May 22:28:30 22:31:57 13° 119° (ESE) 22:36:08
TISAT 1 23 May 22:35:11 22:35:29 10° 113° (ESE) 22:36:04 437.305
CUBEBUG 1 23 May 22:35:50 22:40:12 62° 105° (ESE) 22:44:39 437.445
HUMSAT D 23 May 22:39:35 22:43:06 26° 275° (W) 22:46:36 437.325/437.525
ANTELSAT 23 May 22:46:45 22:51:26 90° 78° (ENE) 22:56:08 437.575/2403.000
POLYITAN 1 23 May 22:50:55 22:55:00 42° 82° (E) 22:59:05 437.675
QB50P1 23 May 22:51:03 22:55:07 41° 82° (E) 22:59:09 145.935-145.965
50 SAT 23 May 22:51:50 22:55:19 31° 277° (W) 22:58:49 437.505
BUGSAT 1 23 May 22:52:03 22:55:28 26° 84° (E) 22:58:56 437.445
AISAT 23 May 22:57:35 23:01:39 33° 277° (W) 23:05:43 437.250
CUSAT 1 23 May 23:14:41 23:17:19 18° 102° (ESE) 23:20:35 437.405
TIGRISAT 23 May 23:21:39 23:25:58 38° 253° (WSW) 23:30:16 435.000
NANOSAT C BR1 23 May 23:23:38 23:27:56 78° 257° (WSW) 23:32:10 145.865
ISS 23 May 23:28:08 23:31:19 50° 46° (NE) 23:34:33 145.825
QB50P2 23 May 23:28:54 23:33:11 64° 256° (WSW) 23:37:24 145.880/145.840
SPROUT 23 May 23:28:54 23:33:11 64° 104° (ESE) 23:37:30 437.525
Cosmos 2504 23 May 23:31:56 23:35:28 12° 259° (W) 23:38:12 435.465 / 435.565
UNISAT 6 23 May 23:40:58 23:44:42 24° 250° (WSW) 23:48:22 437.425
POPSAT HIP 1 23 May 23:42:16 23:46:23 45° 254° (WSW) 23:50:27 437.405
DUCHIFAT 1 23 May 23:47:19 23:51:21 40° 254° (WSW) 23:55:19 145.980
ESTCUBE 1 23 May 23:53:44 23:56:36 16° 271° (W) 23:59:16 437.505/2401.250
DANDE 24 May 00:01:02 00:04:19 40° 99° (E) 00:08:32 436.750
TISAT 1 24 May 00:06:36 00:10:48 60° 281° (W) 00:15:02 437.305
GONETS M04 24 May 00:21:41 00:30:33 79° 97° (E) 00:39:23
Cosmos 2499 24 May 00:23:22 00:27:39 15° 118° (ESE) 00:32:35 435.465 / 435.565
BUGSAT 1 24 May 00:27:47 00:30:48 20° 250° (WSW) 00:33:43 437.445
POLYITAN 1 24 May 00:28:11 00:30:35 14° 248° (WSW) 00:32:48 437.675
QB50P1 24 May 00:28:15 00:30:39 14° 248° (WSW) 00:32:53 145.935-145.965
ITUPSAT 1 24 May 00:51:13 00:55:57 58° 106° (ESE) 01:00:46 437.325
PCSat 24 May 00:56:01 01:01:25 82° 63° (ENE) 01:06:54 145.827
CUSAT 1 24 May 00:56:35 00:59:52 25° 277° (W) 01:03:48 437.405
VERMONT LUNAR 24 May 00:59:24 01:00:45 12° 38° (NE) 01:02:12 437.305
BEESAT 24 May 01:01:10 01:05:58 76° 105° (ESE) 01:10:51 436.000
ISS 24 May 01:05:39 01:07:58 17° 210° (SSW) 01:10:15 145.825
SWISSCUBE 24 May 01:09:04 01:13:53 81° 284° (WNW) 01:18:48 437.505
STARS 24 May 01:40:34 01:43:38 19° 111° (ESE) 01:46:52 437.465
O/OREOS (USA 219) 24 May 01:43:39 01:48:18 63° 112° (ESE) 01:52:52 437.305
Oscar 19 24 May 01:44:20 01:49:35 86° 253° (WSW) 01:54:49 437.125/150
ITAMSAT 1 24 May 01:51:08 01:55:37 29° 84° (E) 02:00:09 435.822/435.867
KKS-1 24 May 02:02:34 02:06:56 58° 105° (ESE) 02:11:22 437.445
Gurwin Techsat 1B 24 May 02:07:49 02:12:52 41° 82° (E) 02:17:54 435.225
Cosmos 2499 24 May 02:13:27 02:22:28 82° 97° (E) 02:31:15 435.465 / 435.565
BEESAT 3 24 May 02:18:42 02:20:23 12° 133° (SE) 02:22:13 437.485
GONETS M04 24 May 02:20:53 02:26:32 18° 262° (W) 02:31:38
PHONESAT 2.4 24 May 02:22:08 02:24:25 16° 36° (NE) 02:26:47 2401.200-2431.200
ITUPSAT 1 24 May 02:32:07 02:34:17 12° 270° (W) 02:36:11 437.325
SO-50 24 May 02:32:46 02:36:38 27° 67° (ENE) 02:40:31 436.795
VERMONT LUNAR 24 May 02:34:18 02:37:37 75° 25° (NNE) 02:40:59 437.305
AO-7 24 May 02:35:37 02:39:14 14° 91° (E) 02:43:33 29.400- 29.500
PCSat 24 May 02:42:43 02:45:37 14° 226° (SW) 02:48:17 145.827
HORYU 2 24 May 02:50:22 02:53:04 16° 88° (E) 02:55:57 437.375
BEESAT 2 24 May 03:01:19 03:04:46 27° 126° (SE) 03:08:15 435.950
MOZHAYETS 4 24 May 03:07:23 03:10:48 21° 110° (ESE) 03:14:23
STARS 24 May 03:15:55 03:19:53 32° 277° (W) 03:23:52 437.465
ITAMSAT 1 24 May 03:30:34 03:35:04 29° 249° (WSW) 03:39:27 435.822/435.867
JAS-2 24 May 03:35:01 03:42:50 59° 81° (E) 03:50:23 435.910
KKS-1 24 May 03:42:58 03:44:02 10° 270° (W) 03:44:46 437.445
Gurwin Techsat 1B 24 May 03:48:29 03:52:36 22° 248° (WSW) 03:56:32 435.225
BEESAT 3 24 May 03:54:50 03:58:43 53° 296° (WNW) 04:02:35 437.485
PHONESAT 2.4 24 May 03:58:40 04:02:15 89° 22° (NNE) 04:05:52 2401.200-2431.200
AIST 2 24 May 04:06:41 04:10:35 40° 124° (ESE) 04:14:32 435.215
Cosmos 2499 24 May 04:08:52 04:14:43 19° 262° (W) 04:19:59 435.465 / 435.565
VERMONT LUNAR 24 May 04:11:54 04:15:02 35° 189° (S) 04:18:10 437.305
SO-50 24 May 04:13:06 04:17:06 28° 233° (SW) 04:20:59 436.795
AO-7 24 May 04:24:53 04:33:18 87° 74° (ENE) 04:41:37 29.400- 29.500
HORYU 2 24 May 04:25:38 04:29:55 40° 253° (WSW) 04:34:08 437.375
CUBESAT XI-V 24 May 04:37:27 04:40:06 15° 112° (ESE) 04:42:57 437.345
BEESAT 2 24 May 04:39:40 04:42:42 20° 292° (WNW) 04:45:40 435.950
MOZHAYETS 4 24 May 04:43:39 04:47:50 32° 276° (W) 04:52:03
CUTE-I 24 May 05:19:02 05:22:09 16° 89° (E) 05:25:31 437.470
JAS-2 24 May 05:20:51 05:27:22 28° 245° (WSW) 05:33:34 435.910
PHONESAT 2.4 24 May 05:37:17 05:40:38 35° 187° (S) 05:44:00 2401.200-2431.200
Cubesat XI-IV 24 May 05:37:37 05:41:59 25° 86° (E) 05:46:25 437.490
AIST 2 24 May 05:46:25 05:48:52 15° 290° (WNW) 05:51:10 435.215
VERMONT LUNAR 24 May 05:49:37 05:52:43 33° 172° (S) 05:55:50 437.305
PRISM 24 May 05:49:48 05:53:46 41° 107° (ESE) 05:57:50 437.425
ISS 24 May 05:58:55 06:01:11 17° 151° (SSE) 06:03:29 145.825
Cosmos 2491 24 May 06:05:44 06:14:18 55° 102° (ESE) 06:22:51 435.465 / 435.565
STRAND 1 24 May 06:10:00 06:15:06 64° 105° (ESE) 06:20:17 437.568
CUBESAT XI-V 24 May 06:12:33 06:17:10 48° 279° (W) 06:21:48 437.345
M-CUBED/EXP-1 PRIME 24 May 06:18:32 06:22:13 68° 109° (ESE) 06:26:18 437.505
AO-7 24 May 06:19:36 06:25:12 19° 237° (WSW) 06:30:22 29.400- 29.500
AUBIESAT-1 24 May 06:29:53 06:33:36 82° 107° (ESE) 06:37:43 437.475
YUBILEINY 24 May 06:53:51 07:02:14 55° 89° (E) 07:10:49 435.215
CUTE-I 24 May 06:57:23 07:02:38 53° 253° (WSW) 07:07:48 437.470
BRITE-PL 24 May 07:03:30 07:04:14 11° 90° (E) 07:05:16 437.365/2234.400
RS-15 24 May 07:05:29 07:13:54 24° 76° (ENE) 07:23:01 29.354- 29.394
PHONESAT 2.4 24 May 07:15:50 07:19:14 38° 170° (S) 07:22:39 2401.200-2431.200
Cubesat XI-IV 24 May 07:17:17 07:22:09 34° 250° (WSW) 07:26:54 437.490
GOMX 1 24 May 07:22:23 07:23:24 11° 89° (E) 07:24:45 467.674
VERMONT LUNAR 24 May 07:26:48 07:30:10 86° 335° (NNW) 07:33:31 437.305
PRISM 24 May 07:27:15 07:29:28 13° 271° (W) 07:31:29 437.425
AIST 1 24 May 07:30:58 07:35:16 54° 99° (E) 07:39:28
ISS 24 May 07:34:37 07:37:49 49° 314° (NW) 07:40:59 145.825
SEEDS 24 May 07:48:54 07:50:11 11° 91° (E) 07:51:44 437.485
STRAND 1 24 May 07:52:26 07:54:50 13° 270° (W) 07:56:54 437.568
Cosmos 2491 24 May 08:03:33 08:10:44 28° 266° (W) 08:17:36 435.465 / 435.565
COMPASS 1 24 May 08:06:27 08:08:50 15° 89° (E) 08:11:25 437.405
Cosmos 2504 24 May 08:19:45 08:23:20 15° 99° (E) 08:27:38 435.465 / 435.565
AAUSAT CUBESAT 2 24 May 08:20:53 08:23:53 19° 87° (E) 08:27:00 437.432
HO-68 24 May 08:25:20 08:32:17 49° 80° (E) 08:39:13 435.675
DOVE 4 24 May 08:35:57 08:40:15 53° 80° (E) 08:44:45 437.250
CINEMA 3 24 May 08:37:54 08:41:38 26° 84° (E) 08:45:34 145.822/145.860
BRITE-PL 24 May 08:39:01 08:43:08 50° 255° (WSW) 08:47:23 437.365/2234.400
